Theta_e
317 319 318 318 318 317 317 317 317 317 316 316 316 315 314 314 314 316 318 314 314 315 315 317 317 317 317 317 317 318 317 317 317 317 318 318 318 318 318 318 319 319 320 322 321 318 317 315 314 313 312 313 314 315 316 317 318 319 319 319 319 318 318 318 318 318 318 318 318 318 320 320 320 320 322 324 325 326 328 329 330 330 329 329 330 330
317 318 318 318 318 318 317 317 317 316 316 316 315 314 314 315 315 317 317 314 314 314 315 316 317 317 317 317 317 317 317 317 317 318 318 318 318 318 319 319 320 319 322 325 322 319 317 315 314 312 312 312 314 314 315 316 317 318 319 319 318 318 317 318 318 318 317 317 316 317 318 319 319 320 321 323 323 324 326 327 328 328 327 328 329 329
317 317 318 318 317 317 317 317 317 316 317 317 316 315 315 316 316 316 316 315 314 314 315 316 316 316 317 317 317 317 317 317 317 318 318 318 318 318 319 319 320 320 322 323 322 320 317 315 314 312 312 312 313 314 314 315 316 317 318 319 319 318 317 318 318 317 316 315 314 315 318 318 319 320 320 321 322 322 324 326 327 326 326 328 328 329
315 316 316 316 316 316 316 316 316 316 317 317 317 315 315 318 316 313 314 315 315 314 315 316 316 317 317 317 317 318 318 318 319 319 319 319 319 319 320 320 320 320 321 322 321 320 318 316 315 313 312 312 312 313 314 314 315 317 318 318 318 318 317 318 317 317 316 315 313 315 318 319 318 318 318 320 320 321 325 327 326 324 326 328 328 329
316 315 313 314 316 316 316 316 317 316 315 317 318 316 315 318 316 314 315 316 315 315 315 317 315 314 316 318 318 320 320 319 319 319 319 320 320 321 321 321 321 321 321 321 321 320 318 316 315 313 312 312 312 312 313 314 315 316 317 317 317 317 317 317 317 316 316 315 315 316 317 318 317 316 317 319 319 321 324 325 325 325 326 327 327 327
316 314 312 315 315 316 316 316 317 316 314 315 319 319 316 316 317 316 318 316 314 314 316 317 313 310 314 317 318 319 319 319 319 319 319 319 320 321 321 321 322 321 322 321 320 320 319 317 315 314 313 312 312 312 313 314 314 315 316 317 317 317 317 317 317 316 315 315 315 316 316 315 315 315 317 319 320 321 323 324 324 324 324 325 326 326
315 312 313 316 316 317 318 315 317 318 313 313 317 318 316 317 318 317 318 316 313 315 317 316 313 311 313 314 316 318 318 319 319 318 319 319 319 320 321 321 322 322 322 321 320 318 318 318 316 315 313 313 312 312 312 313 314 315 316 316 316 316 317 317 317 316 315 315 315 315 315 314 315 315 317 319 320 322 323 323 322 322 323 324 324 326
315 313 315 317 317 319 318 316 318 317 313 315 318 317 316 316 318 319 319 317 316 318 317 316 316 314 313 314 316 319 318 318 318 317 318 319 319 319 320 321 321 321 321 321 320 318 317 317 316 315 314 313 312 312 312 312 313 314 315 316 316 316 316 316 316 316 315 314 314 314 314 314 315 316 317 318 319 320 321 322 321 321 323 324 324 326
316 317 317 317 317 318 317 317 319 317 315 318 318 317 317 317 319 320 319 318 319 319 316 317 319 317 314 315 316 319 317 317 318 318 318 318 320 321 320 320 320 319 319 318 319 318 317 317 315 315 314 313 312 311 311 312 312 313 314 315 315 315 316 315 315 315 314 313 313 314 314 314 315 316 318 318 318 318 320 320 320 320 322 323 324 325
315 314 315 317 317 318 316 314 316 317 317 317 316 317 319 319 319 320 319 318 319 319 317 319 320 315 313 313 314 317 317 318 318 317 318 318 319 321 319 321 320 318 318 318 316 316 317 316 314 313 313 312 312 311 311 311 312 312 313 314 314 315 315 315 315 314 313 312 312 313 314 315 316 316 318 318 316 317 318 318 318 320 322 322 323 323
312 311 312 316 316 316 314 313 314 317 317 317 319 320 319 320 320 319 319 318 316 317 317 319 319 315 314 313 312 315 316 318 319 316 318 319 319 321 320 321 320 318 318 318 316 315 315 314 312 311 311 311 311 310 310 311 311 312 313 313 314 314 314 314 314 313 312 311 311 312 313 314 316 316 317 317 315 315 316 316 316 318 320 321 321 321
314 314 314 314 313 313 315 314 314 315 317 319 320 318 316 317 319 317 318 319 316 315 316 317 318 318 317 314 312 316 318 316 317 317 317 318 320 322 321 320 318 318 318 317 317 317 315 313 311 310 310 310 310 310 310 310 311 312 312 313 313 314 314 314 313 313 312 311 311 312 313 314 315 316 317 316 315 314 315 315 315 316 317 318 318 320
317 317 316 314 312 313 316 316 315 315 317 319 317 315 314 313 315 315 317 319 316 315 316 315 316 318 317 315 314 317 318 316 317 318 318 317 319 322 322 320 318 318 318 317 318 318 317 316 315 313 311 310 310 309 309 310 310 311 312 312 313 313 313 313 313 312 312 311 311 311 312 313 314 315 316 315 314 314 315 315 314 314 314 314 314 316
317 319 317 316 313 313 315 317 316 316 316 317 316 315 314 311 313 315 316 316 315 315 315 314 316 317 314 314 317 317 316 317 317 317 318 319 318 319 322 321 320 319 319 318 318 318 318 318 318 316 313 312 310 310 309 309 310 311 312 312 312 312 313 313 313 312 311 311 311 311 311 312 313 314 314 314 314 314 315 314 314 314 314 314 313 316
316 317 318 317 315 313 315 317 316 316 316 317 317 316 314 312 312 313 313 313 313 314 314 313 315 315 313 313 316 317 317 317 316 317 317 317 318 319 321 321 320 320 319 318 319 318 318 318 318 316 314 312 312 310 309 309 310 311 311 311 311 312 312 313 312 311 311 311 311 311 311 311 312 313 313 313 314 314 314 314 314 314 315 315 316 317
315 315 317 317 315 314 315 316 315 317 317 317 319 319 317 315 312 312 313 313 313 314 315 315 315 315 315 315 316 316 316 316 316 316 316 317 317 318 318 319 319 319 317 318 319 319 318 318 316 315 313 312 311 310 309 310 310 310 311 311 311 311 312 312 312 311 310 310 310 310 310 310 311 312 312 312 313 313 312 313 313 313 314 316 317 317
314 315 317 316 314 314 314 316 316 316 317 318 319 320 318 317 315 313 313 313 313 313 313 314 315 314 313 315 316 315 315 315 316 316 317 317 319 320 321 322 322 320 318 319 319 319 318 317 315 313 312 311 311 310 310 310 310 310 311 311 311 311 311 312 312 311 310 310 310 310 310 309 310 311 311 311 313 312 311 311 312 312 313 316 317 316
313 314 315 315 316 314 312 314 316 315 317 318 319 318 316 316 316 313 313 314 315 315 314 312 312 312 311 313 316 316 315 315 315 316 317 316 318 320 323 327 326 322 320 320 319 319 318 317 315 312 311 311 310 310 309 309 310 310 310 311 311 311 311 311 311 311 310 309 309 309 309 309 309 310 310 310 311 310 310 311 312 312 313 314 315 314
314 313 314 313 315 314 311 313 316 315 315 316 317 317 316 316 316 314 314 315 315 317 316 313 312 312 311 312 314 315 315 316 315 315 316 316 317 319 320 324 325 322 322 323 319 318 319 317 315 313 311 310 309 309 309 309 309 310 310 310 311 311 311 311 311 310 310 309 309 309 309 308 309 309 308 309 309 309 310 311 311 312 312 312 312 312
313 313 315 312 312 314 313 314 316 316 315 314 315 316 316 317 316 314 315 313 313 315 316 316 314 312 314 313 313 314 314 315 315 315 315 315 316 319 319 321 323 322 323 325 322 321 322 319 315 313 311 309 308 308 308 308 309 309 310 310 310 311 311 311 311 310 309 309 309 308 308 308 308 308 307 307 308 308 309 310 310 310 311 312 312 311
313 312 314 313 312 314 315 315 316 317 316 314 314 315 316 316 315 315 316 314 313 314 314 315 314 312 313 315 315 315 315 314 315 316 316 317 317 319 320 321 322 322 323 324 324 323 323 319 314 311 310 309 308 307 307 308 308 309 309 310 310 310 311 311 310 310 309 308 308 307 307 307 307 307 306 306 307 307 309 309 308 309 311 312 311 309
314 312 313 314 314 315 315 316 315 315 317 315 314 315 316 316 316 316 317 317 316 315 315 315 315 313 313 315 316 314 314 315 317 318 318 318 319 320 322 322 322 322 322 322 322 322 323 318 313 310 308 307 307 307 306 306 307 308 309 309 310 310 310 310 310 310 309 308 307 307 307 307 307 306 305 305 306 307 308 307 307 309 310 311 310 308
315 314 313 315 316 316 315 314 312 313 315 316 316 316 315 316 316 316 317 317 317 317 316 316 317 316 315 315 316 315 316 317 317 319 318 318 318 320 322 322 322 322 320 320 319 319 319 316 312 310 308 307 307 306 306 306 306 307 307 308 309 309 310 310 310 309 309 308 307 307 306 306 306 305 304 305 305 306 306 305 306 307 308 309 308 308
315 315 314 314 315 315 314 313 312 312 314 316 317 317 317 317 317 317 316 316 317 318 316 316 317 317 315 316 317 316 319 321 318 318 318 319 320 320 320 321 322 321 320 319 318 316 315 313 311 309 308 307 307 306 306 306 305 306 306 307 308 308 308 309 309 309 308 307 307 306 306 306 305 304 304 304 305 305 304 304 305 306 306 306 306 307
315 316 315 315 316 316 316 316 315 314 315 316 317 317 318 318 319 319 316 315 316 318 318 317 317 316 315 318 319 316 317 319 317 317 319 321 322 322 321 321 321 322 322 321 319 316 314 313 311 310 309 308 307 306 306 305 305 305 306 306 306 307 307 307 308 308 307 307 306 306 305 305 304 304 304 304 304 304 303 303 304 305 305 305 305 306
317 319 316 315 316 318 318 319 318 317 315 315 316 317 318 318 319 319 317 317 318 318 318 318 317 315 315 317 318 315 314 315 314 315 318 319 320 320 321 321 321 322 323 321 319 318 317 316 313 311 310 309 308 307 306 306 305 305 305 305 305 306 306 306 307 307 307 306 306 305 305 304 304 303 303 303 303 303 302 302 302 303 305 305 304 304
320 321 317 315 316 316 317 318 319 319 317 316 317 318 318 319 320 319 318 318 318 318 318 318 317 317 316 316 316 316 316 316 315 315 316 318 319 320 320 321 320 320 319 318 318 319 319 318 315 312 311 309 308 307 306 306 306 305 305 305 304 305 305 305 306 306 306 305 305 305 304 303 303 302 302 302 302 302 301 301 300 300 303 304 302 303
320 318 315 316 316 315 315 315 317 319 318 317 318 318 318 319 320 321 319 318 318 319 318 317 318 319 318 315 316 317 316 316 316 315 315 316 318 321 322 322 321 318 316 316 317 318 319 318 315 313 312 310 308 307 306 306 306 306 305 304 304 304 304 304 305 305 305 305 304 304 304 303 302 302 301 301 301 302 301 300 299 300 302 301 301 301
319 316 316 317 316 315 315 315 315 316 316 317 318 318 318 319 320 320 319 318 318 319 318 317 318 319 317 316 316 316 316 316 316 316 316 316 318 320 321 321 321 320 318 318 319 320 321 319 317 315 314 311 309 307 306 306 306 305 304 303 303 303 303 303 304 304 304 303 303 304 303 302 302 301 300 300 300 301 301 300 299 299 299 299 299 299
317 315 316 317 317 317 316 316 316 316 317 317 317 316 317 318 319 320 319 318 318 319 317 317 318 318 317 316 316 316 316 317 316 317 316 316 318 319 319 319 321 321 321 320 320 320 320 320 319 317 315 313 311 308 307 306 306 304 303 303 303 302 302 302 303 303 303 302 302 303 302 302 301 300 299 299 299 300 301 299 298 298 297 297 297 297
316 317 317 316 317 318 317 317 317 317 318 319 318 317 317 317 318 319 319 318 318 319 318 318 319 318 317 316 316 316 317 317 317 317 316 316 316 317 317 317 318 319 321 321 320 319 319 320 319 318 316 314 312 311 308 307 307 305 303 303 303 302 302 302 302 302 302 302 302 301 301 301 300 299 299 299 299 299 299 299 298 297 296 295 296 296
315 316 317 316 317 318 318 317 317 317 318 319 318 318 317 317 317 318 318 319 319 319 319 319 320 318 317 316 317 316 316 317 317 316 317 317 316 316 316 316 316 317 318 318 318 319 319 319 319 319 317 315 313 311 309 308 308 306 304 303 303 302 301 301 301 301 301 301 301 300 300 300 299 299 298 298 298 298 298 298 297 295 294 294 295 295
313 314 315 316 318 319 318 318 318 318 319 320 319 318 317 317 317 317 317 318 318 318 318 319 318 317 316 316 317 316 316 316 316 316 317 318 317 316 316 316 316 316 316 317 317 317 318 318 318 318 317 315 313 312 310 309 308 307 305 304 303 302 301 300 300 300 300 300 300 300 300 299 298 298 297 297 297 297 297 297 295 294 293 294 294 294
314 315 315 316 318 318 318 318 318 319 321 322 320 318 317 317 317 318 317 317 317 317 317 317 316 315 316 316 316 316 316 316 316 317 317 317 317 317 317 316 316 316 316 316 317 316 316 317 317 317 317 316 314 312 311 310 308 307 306 304 302 301 300 300 299 299 299 299 299 299 299 298 297 297 297 296 296 296 296 295 294 293 293 293 293 292
315 315 315 316 317 317 318 318 319 321 322 321 318 316 316 316 317 318 318 317 316 317 317 316 315 315 315 315 316 316 316 316 316 316 316 316 316 316 316 316 316 316 316 316 316 316 316 316 316 317 317 315 313 312 310 308 307 305 304 302 301 300 299 299 299 298 298 298 298 298 298 297 297 296 296 295 295 295 294 294 293 292 292 292 291 291
315 315 314 315 316 317 317 318 320 321 320 318 316 316 316 316 317 318 319 318 316 317 317 317 316 316 315 315 315 316 316 316 316 316 316 315 315 316 315 315 315 315 315 316 316 316 316 316 316 317 316 314 312 309 308 306 305 303 302 301 300 299 299 298 298 297 297 297 297 297 297 296 296 295 295 294 294 293 293 292 291 291 291 290 290 290
315 315 315 315 316 316 317 317 318 319 319 318 316 316 316 317 317 318 319 318 316 316 317 317 317 316 316 316 316 316 316 316 316 315 315 315 316 316 315 315 315 315 315 315 315 315 316 316 315 315 313 311 309 307 305 304 302 301 300 299 298 298 297 297 296 296 296 296 296 296 295 295 295 295 294 293 292 292 291 291 290 290 290 289 288 288
314 314 315 316 316 316 316 317 317 318 318 317 316 315 315 316 317 317 319 319 317 316 317 317 317 317 317 317 317 317 316 316 316 316 315 315 316 316 316 316 315 315 314 314 314 314 314 313 311 310 309 307 305 304 303 302 301 300 299 298 297 296 296 296 295 295 295 295 295 295 294 294 294 294 293 292 292 291 290 290 289 289 289 289 288 287
315 314 314 315 316 316 317 317 317 317 317 316 315 315 314 315 316 318 320 319 318 316 316 316 316 316 317 317 317 317 317 316 316 316 315 316 316 317 317 316 315 315 314 313 313 313 311 309 307 306 305 304 302 301 301 300 300 299 298 296 296 295 295 295 295 295 294 294 294 294 293 293 293 293 292 292 291 291 290 289 288 288 288 287 287 287
315 314 314 315 315 315 316 316 316 316 316 316 316 315 315 316 316 319 321 320 317 316 317 316 316 317 317 317 317 318 317 316 316 316 315 316 316 317 317 316 315 314 313 312 310 308 306 305 303 302 301 301 300 300 299 299 298 297 296 295 295 294 294 294 294 294 294 293 293 292 292 292 293 293 292 291 291 290 289 288 288 287 287 286 286 287
315 314 314 315 315 315 315 316 316 315 315 316 316 315 316 318 319 320 319 315 312 313 313 313 314 315 316 317 317 316 316 316 315 315 316 316 315 315 315 312 309 306 306 305 304 302 302 301 300 300 299 298 298 297 297 297 297 296 295 294 294 294 294 293 293 293 292 292 292 291 292 292 292 292 291 291 290 289 288 288 288 287 286 286 285 285
314 314 314 315 315 315 315 315 315 315 316 316 315 313 314 317 318 316 312 310 309 309 309 309 309 310 313 314 315 315 315 315 315 315 314 314 314 314 313 310 307 304 301 299 299 298 298 298 297 297 296 295 295 295 295 296 295 294 293 293 293 293 292 292 292 291 291 291 291 291 291 291 291 290 290 289 289 288 287 287 287 286 286 285 284 284
313 314 314 315 315 315 315 315 316 316 315 313 312 313 313 314 313 310 308 307 308 309 309 309 308 307 308 310 311 311 311 312 313 313 313 314 314 313 310 308 306 304 300 297 296 296 296 296 295 294 293 292 292 293 293 294 294 293 292 292 292 291 291 291 291 291 290 290 290 290 290 290 289 289 289 288 288 287 287 286 286 285 285 284 284 283
310 311 311 313 315 315 316 316 315 314 311 308 309 311 311 311 309 308 306 306 307 307 308 308 308 307 307 307 307 307 307 307 308 310 311 311 311 310 307 303 302 300 298 296 295 294 294 295 294 292 291 291 291 291 292 293 293 292 291 291 290 290 290 290 290 290 290 289 289 289 289 289 288 288 288 288 287 287 286 285 284 284 284 283 283 283
309 310 309 310 312 313 313 312 310 309 307 306 307 308 308 308 308 307 306 305 306 307 307 307 307 306 304 304 304 305 305 306 307 307 309 309 308 307 304 300 299 298 297 295 294 293 293 294 293 292 291 290 290 291 292 292 292 291 290 289 289 290 290 290 289 289 289 288 288 288 287 287 287 287 287 287 286 286 285 284 284 283 283 283 283 283
309 310 309 309 309 309 309 309 308 308 307 307 308 308 307 308 307 306 306 306 306 307 306 305 305 304 302 301 301 302 303 305 306 306 307 307 306 305 302 299 297 296 295 294 293 292 292 293 292 291 290 289 289 290 290 291 292 291 289 289 290 290 290 290 289 288 288 287 287 287 287 286 286 286 286 286 285 285 284 284 284 284 283 283 283 283
307 307 306 307 307 307 308 309 308 308 308 307 308 308 308 307 307 307 307 307 307 306 305 304 302 301 300 299 300 300 302 303 304 305 305 305 304 302 300 298 296 294 293 293 291 291 291 291 291 291 290 289 288 289 289 290 290 290 290 290 290 290 290 289 289 287 286 286 286 286 286 286 285 285 285 285 285 284 284 284 284 284 284 283 283 283
306 305 303 304 305 306 307 306 305 305 307 308 308 307 306 306 306 307 308 308 306 305 304 302 300 300 299 299 299 299 300 301 302 302 302 302 301 299 298 296 294 293 292 291 290 290 290 291 290 290 289 288 287 288 288 289 289 290 290 290 289 289 289 288 287 286 286 285 285 285 286 285 285 285 285 285 285 284 284 284 284 284 284 284 283 283
303 303 302 303 304 304 304 303 303 303 305 307 308 307 306 306 307 308 308 307 306 305 304 302 301 300 299 297 297 298 298 299 300 300 299 299 298 297 295 294 293 292 291 290 289 289 290 290 290 289 287 286 286 287 288 288 288 289 290 289 288 289 288 287 286 286 285 285 285 285 285 285 285 285 285 284 285 284 284 284 284 284 284 284 284 284
302 302 302 302 302 302 301 302 302 302 302 304 306 306 306 307 308 308 307 306 306 305 305 304 303 301 299 296 295 295 296 298 298 298 298 297 296 295 294 292 292 291 290 289 289 289 289 289 288 287 286 285 286 287 288 288 288 288 289 289 288 288 288 287 286 285 285 285 285 285 285 285 285 285 284 284 284 284 284 284 284 284 284 284 284 284
300 301 300 300 300 300 300 301 301 301 302 304 305 305 304 306 307 307 306 305 305 305 305 305 304 303 301 299 295 295 297 299 298 297 297 297 294 293 292 292 291 290 289 288 288 288 288 287 287 286 285 285 286 287 287 287 287 287 288 288 288 288 288 287 286 285 285 285 285 285 285 285 284 284 284 283 283 283 283 283 283 283 283 284 284 285
Wind_Speed
1 4 5 6 7 8 9 8 3 2 3 1 1 2 4 4 3 2 5 4 1 4 8 10 12 15 15 16 16 15 14 14 14 14 13 12 11 11 12 13 12 12 10 8 10 14 16 16 17 17 18 18 19 20 20 23 25 25 25 26 28 29 28 24 22 23 23 23 22 21 20 19 20 22 26 28 26 25 29 30 29 29 27 27 28 29
2 6 7 7 3 1 3 3 1 0 1 2 3 3 4 5 4 2 5 3 2 2 7 8 11 14 14 16 16 15 16 16 15 15 15 15 14 12 13 14 13 12 8 7 10 13 15 15 16 17 17 18 19 20 22 24 25 25 25 26 26 26 28 26 24 26 28 28 26 23 21 19 19 23 25 26 28 30 30 30 30 29 29 29 30 32
4 7 6 3 3 5 3 1 2 4 4 4 4 4 4 3 2 2 5 2 2 3 6 6 10 14 14 16 17 16 17 15 14 15 15 14 14 13 14 14 12 11 9 9 10 12 14 16 16 16 16 18 19 19 21 22 22 23 24 24 24 23 26 27 26 29 31 30 28 23 19 17 18 20 23 22 23 28 31 32 32 30 30 30 30 31
5 5 2 3 4 3 2 3 5 4 5 5 4 4 3 1 1 2 2 2 3 4 5 7 9 13 14 14 17 17 16 14 12 13 13 12 13 15 14 11 10 11 11 10 10 10 12 15 16 16 16 17 18 17 19 21 22 23 25 25 24 24 25 26 27 29 29 27 26 21 16 16 18 18 24 25 23 26 31 32 32 31 31 31 30 30
4 3 2 2 3 6 5 5 6 5 5 6 6 6 5 2 2 2 2 1 5 4 3 7 8 9 10 10 10 8 8 10 9 10 10 11 13 13 11 10 10 11 11 10 10 8 10 13 15 16 16 16 17 18 20 22 23 23 23 24 24 23 23 24 26 28 27 24 21 20 19 19 20 19 23 28 28 30 33 32 33 33 32 31 30 31
3 4 2 4 4 6 6 6 7 6 5 5 7 7 9 7 3 2 3 3 5 3 1 3 5 6 7 9 9 5 6 8 8 9 11 12 12 11 9 9 10 10 10 9 9 8 8 11 14 15 16 17 18 19 21 22 22 21 20 22 22 21 21 21 23 27 28 24 22 23 22 20 20 20 25 32 34 35 35 33 33 32 31 31 32 33
2 3 1 4 5 5 6 6 8 7 5 4 2 2 6 7 4 3 3 2 4 2 1 1 4 6 8 12 12 7 7 9 8 10 12 12 11 9 8 8 8 8 7 7 7 8 8 10 11 13 15 17 17 17 18 18 19 19 18 19 21 20 19 19 20 24 26 24 22 22 21 20 21 19 24 33 35 35 36 34 32 31 30 32 34 34
4 5 3 4 5 5 5 4 7 10 7 2 1 1 0 2 3 3 3 4 3 4 2 3 3 5 7 13 11 3 5 11 10 12 13 12 10 9 8 7 6 5 4 4 5 6 7 9 9 11 12 14 14 13 14 15 16 18 18 18 20 19 18 18 19 22 25 25 22 20 20 21 22 18 19 26 29 30 34 33 32 30 31 33 34 34
3 5 6 8 7 5 4 1 1 9 7 1 1 1 3 3 2 2 2 3 1 3 5 5 5 5 6 10 12 6 7 12 11 11 12 10 8 6 6 4 3 2 2 2 3 3 4 6 7 8 8 10 11 12 14 16 16 18 18 18 19 19 18 18 20 22 26 27 22 18 19 20 20 19 17 19 22 27 31 32 31 30 31 33 33 34
3 1 2 6 6 4 3 6 5 2 2 3 4 4 6 4 3 2 2 2 1 4 7 6 9 6 6 8 10 8 7 9 9 8 5 2 2 3 4 3 2 2 2 2 2 2 2 3 4 4 6 7 10 12 14 15 16 17 18 18 19 20 19 18 20 23 26 28 23 18 19 20 20 19 19 18 19 25 30 30 30 31 32 34 34 34
3 1 1 2 2 1 5 6 6 4 3 6 6 5 4 3 2 1 2 1 3 6 4 5 10 7 7 5 8 7 3 3 4 3 3 5 4 4 3 3 3 2 3 3 2 3 3 4 4 4 6 7 9 10 12 13 14 15 17 18 19 20 19 18 20 22 25 28 25 20 20 21 20 20 23 22 20 24 28 28 29 31 32 33 34 35
4 3 2 2 1 2 6 5 5 4 2 3 3 3 2 2 2 3 3 3 5 6 0 1 2 6 8 5 5 4 2 1 3 3 3 4 5 6 4 4 4 2 2 3 3 4 5 5 5 6 7 8 9 10 12 13 13 15 16 17 18 19 19 18 18 21 23 26 25 22 21 21 21 22 25 26 24 25 28 29 29 30 31 32 33 35
4 5 5 4 0 4 6 5 4 2 2 3 4 4 3 3 3 5 5 5 6 3 2 1 2 5 10 7 6 6 5 6 7 5 4 3 2 4 5 5 4 3 3 3 3 4 4 5 5 7 8 9 10 11 12 13 14 14 15 17 18 19 20 18 18 20 22 23 23 23 22 21 22 24 25 27 27 25 27 30 30 30 32 31 31 34
3 3 5 6 2 5 8 6 5 4 5 7 7 6 6 5 5 7 6 4 4 1 1 0 1 5 10 6 10 14 11 11 10 6 5 6 8 6 3 6 5 5 4 3 4 3 4 4 5 7 9 10 11 11 12 13 14 14 14 16 17 18 19 19 18 19 21 22 22 23 23 21 23 25 25 27 29 28 28 29 31 32 33 33 33 34
7 4 7 9 6 9 12 9 6 6 8 9 8 6 7 6 6 7 5 4 4 0 2 2 2 5 5 1 3 6 4 7 8 6 6 6 7 7 3 4 5 6 6 5 5 5 5 5 6 7 8 9 10 11 12 12 13 14 14 16 18 18 19 20 19 19 20 21 21 22 23 21 22 24 25 28 30 30 29 30 32 32 33 34 34 34
9 6 8 7 5 15 15 10 8 6 6 7 5 6 7 5 6 5 1 1 2 2 2 5 4 6 5 4 5 4 2 5 6 5 6 7 5 4 5 6 7 7 7 5 6 6 6 6 7 7 7 8 9 10 12 13 14 15 14 16 18 18 19 20 20 20 19 20 19 21 23 23 22 24 26 29 31 30 29 31 32 31 32 33 32 32
7 3 6 4 3 11 8 5 7 4 3 5 5 7 3 1 3 5 1 3 1 5 6 5 7 9 7 9 11 13 13 12 11 8 7 7 6 4 5 6 6 5 5 5 6 5 5 6 7 8 8 8 10 11 13 14 15 16 15 16 17 17 18 19 20 20 18 18 19 21 23 24 23 25 27 28 30 30 29 31 31 30 31 33 31 32
5 3 2 3 4 5 2 3 1 2 2 3 5 5 2 4 2 4 4 2 3 8 6 6 11 11 7 7 4 8 11 11 9 7 7 8 8 7 8 7 3 3 4 4 5 5 5 6 7 8 9 9 10 12 13 14 15 16 16 17 17 18 19 20 20 20 19 19 19 21 23 24 24 25 26 27 28 29 28 30 31 31 31 32 31 32
4 5 1 0 1 3 3 1 3 1 2 1 2 1 1 2 4 5 6 6 7 8 6 9 14 11 9 10 4 3 5 5 5 5 5 8 9 8 9 8 4 3 4 5 5 5 5 6 7 8 9 10 11 12 13 14 15 16 16 17 17 18 19 20 20 20 20 20 20 20 21 22 23 24 25 28 29 30 30 30 31 32 31 30 29 32
4 6 3 1 2 4 5 4 7 5 3 1 3 2 1 2 4 5 6 6 7 8 7 9 11 9 9 11 11 9 9 8 8 7 7 8 7 5 4 4 5 5 5 5 5 6 5 5 6 8 8 9 10 11 12 13 14 15 16 16 17 17 18 19 20 21 20 20 20 21 20 21 23 24 25 28 31 32 32 31 30 31 30 28 29 31
4 5 4 1 1 3 5 7 10 9 8 5 5 6 5 3 1 2 4 6 6 7 7 8 9 9 7 6 8 9 7 6 5 4 5 6 6 2 2 3 5 5 5 4 4 4 4 5 6 8 8 9 10 10 11 12 13 14 16 16 17 17 18 20 21 21 20 20 20 21 21 21 23 25 26 28 31 31 31 31 30 30 29 29 30 31
5 5 5 4 4 7 7 6 7 7 9 9 9 10 10 8 5 4 7 6 4 5 5 6 7 10 8 2 3 5 3 3 3 3 4 5 6 3 2 3 4 5 5 5 3 3 3 5 6 8 8 9 10 11 12 13 14 15 16 17 17 18 19 20 22 22 21 20 21 22 22 22 23 26 27 29 30 30 30 30 30 31 30 31 31 31
2 4 7 6 6 6 3 2 1 2 3 5 7 9 10 9 9 9 8 4 4 4 3 5 7 11 10 2 2 4 2 3 2 1 3 5 5 4 2 2 3 4 3 2 2 0 2 3 5 7 8 9 10 11 12 13 14 16 17 17 18 19 20 21 21 22 22 22 23 23 23 23 24 26 28 29 30 30 29 29 31 31 32 32 32 32
1 2 6 6 5 3 3 3 2 2 2 6 7 7 7 8 8 7 4 0 2 6 5 6 7 11 13 7 4 5 2 2 2 3 4 5 3 3 5 4 2 3 3 2 1 0 0 1 3 5 7 9 10 11 12 13 15 16 17 18 20 21 22 22 22 22 22 23 23 23 24 25 26 27 29 29 29 29 28 29 31 32 32 32 32 31
2 3 4 5 6 5 5 4 3 3 3 5 7 7 8 9 6 1 1 1 4 7 9 9 8 10 14 9 3 3 4 5 7 6 5 4 3 4 5 4 3 2 2 3 3 2 3 3 3 5 6 8 9 11 12 13 15 16 17 20 22 22 23 24 24 23 23 24 25 25 25 27 28 29 31 30 30 30 29 28 30 31 32 31 31 31
3 2 4 6 7 8 8 5 3 5 5 4 6 10 13 14 11 5 3 5 7 10 11 10 9 10 16 16 7 3 6 9 10 8 5 4 4 6 5 4 2 1 2 3 3 2 3 4 5 6 6 8 9 11 12 14 16 17 18 20 23 24 24 24 24 24 24 25 26 26 26 27 28 31 33 32 31 31 30 29 29 30 31 31 31 31
1 1 4 8 10 10 10 6 2 7 8 7 10 13 14 14 14 10 6 8 9 10 11 12 12 14 20 23 18 13 11 10 9 10 8 7 6 5 5 5 3 2 3 3 2 3 5 5 6 6 8 10 11 13 16 17 17 19 20 22 23 24 25 25 24 24 25 25 26 26 27 28 29 30 32 33 32 30 30 30 29 30 31 31 31 31
3 3 7 9 12 14 16 14 7 3 7 11 13 14 14 14 13 11 10 13 12 10 11 13 15 17 20 21 22 22 20 13 10 10 11 11 7 5 4 5 4 4 5 4 4 6 6 6 7 8 10 12 12 16 19 19 17 20 23 24 23 24 26 26 25 25 26 26 26 26 27 27 28 29 30 31 31 30 30 29 30 30 31 31 31 32
3 5 8 9 13 16 17 18 16 11 10 11 11 13 14 14 15 14 15 17 15 12 13 15 17 19 18 19 24 26 22 18 16 14 11 10 6 3 3 5 4 5 6 6 7 7 7 9 10 10 12 13 14 17 20 18 17 20 24 24 23 24 27 26 25 26 26 26 27 27 25 25 25 25 27 29 30 30 30 29 29 30 30 31 32 32
2 4 7 8 10 15 18 18 18 15 14 14 14 15 14 13 16 17 17 20 21 19 17 18 21 22 18 19 24 25 21 17 13 9 6 8 8 6 7 10 8 6 6 7 8 10 11 13 13 13 13 14 17 19 20 19 19 23 26 25 23 24 26 25 25 26 26 26 26 24 23 23 23 23 25 28 29 30 30 29 28 29 30 30 30 30
3 4 5 5 6 12 17 18 18 17 14 13 14 15 16 16 16 17 17 17 17 18 19 21 22 21 18 20 21 22 22 17 10 8 8 8 9 9 11 14 12 9 7 10 12 13 14 14 13 13 13 17 22 23 22 21 20 23 26 25 23 24 25 24 24 24 25 24 23 22 21 22 22 24 25 26 28 29 29 29 28 29 29 29 29 29
4 3 1 3 6 9 12 14 17 16 12 11 13 16 19 19 17 15 14 13 14 17 18 18 17 15 16 18 17 19 23 21 17 17 15 11 10 11 11 13 14 13 13 16 16 16 16 15 14 14 16 20 24 23 23 23 21 23 26 25 22 23 23 23 23 23 23 23 21 21 22 22 23 24 24 25 27 28 28 28 28 28 28 28 28 28
6 4 3 5 5 7 11 13 11 10 9 8 12 18 21 21 18 16 14 16 19 18 15 13 13 13 16 17 17 20 23 20 17 17 15 14 14 13 12 12 14 16 17 19 19 19 19 17 16 19 21 22 22 22 24 25 24 26 27 24 21 21 22 22 22 22 21 21 20 21 21 22 22 23 24 24 25 26 27 28 28 27 27 27 27 27
7 7 6 6 5 7 11 9 6 8 9 8 11 16 18 18 19 18 18 21 22 17 14 14 14 15 18 19 21 23 20 17 16 17 16 15 14 13 12 13 15 17 18 19 19 20 20 17 18 20 20 19 20 20 21 21 22 23 22 20 19 20 21 21 20 20 20 20 20 20 20 21 22 22 23 24 24 25 27 28 28 27 27 26 25 25
6 7 7 6 5 6 7 6 8 10 8 8 11 13 14 17 19 21 22 25 23 18 16 18 19 21 23 23 23 22 18 16 16 17 19 17 13 12 14 16 19 20 19 19 19 20 19 17 18 19 16 16 18 17 15 15 16 17 16 17 18 18 19 19 19 19 19 19 19 20 20 21 21 21 22 23 23 25 26 27 27 26 26 25 24 24
7 6 6 6 6 5 5 9 11 6 2 6 10 9 10 14 16 17 18 20 22 19 17 18 21 24 25 25 23 19 16 17 16 17 22 21 15 14 17 20 21 21 20 19 19 19 19 20 22 21 16 13 13 12 12 13 14 14 15 15 15 16 16 17 17 17 17 17 18 19 19 20 20 20 20 22 23 24 25 26 26 25 24 24 23 23
11 7 6 6 7 6 8 11 10 8 8 10 11 10 10 10 11 11 11 14 17 17 16 18 22 24 24 23 20 15 13 13 13 17 23 21 16 17 21 21 21 21 20 21 21 22 23 22 19 17 12 8 9 10 11 12 13 14 14 13 13 13 14 15 15 15 15 15 15 17 17 18 19 20 20 21 22 23 24 25 25 24 24 23 22 22
14 11 8 7 7 7 9 11 10 10 12 11 14 17 14 11 11 10 10 11 11 12 15 18 21 24 23 18 15 12 9 8 10 15 21 18 14 16 17 17 19 19 18 20 23 24 22 17 13 12 10 8 9 10 11 13 13 13 12 11 11 12 12 13 13 13 13 14 14 15 16 17 19 20 20 21 22 23 23 23 23 23 23 22 22 21
17 13 11 9 8 8 9 10 10 10 8 8 13 16 12 10 10 9 10 9 9 14 17 16 19 23 18 13 12 8 6 8 10 14 18 17 12 10 12 13 15 16 17 20 20 17 15 13 11 11 10 10 10 12 12 13 12 12 12 11 11 12 12 12 12 12 13 14 13 14 15 16 18 20 20 21 22 22 22 22 22 22 21 21 20 20
14 11 10 10 10 12 12 11 9 8 6 7 12 11 5 3 5 8 10 6 5 13 15 12 15 17 12 11 11 8 7 10 12 14 18 16 8 5 8 11 10 9 12 14 13 10 10 10 9 9 9 10 11 12 12 12 12 12 11 11 11 11 11 11 11 12 13 13 13 14 15 16 18 20 20 21 21 21 21 21 21 21 20 19 19 19
8 9 10 11 11 14 16 12 9 7 6 8 13 10 2 3 5 9 9 3 4 9 10 8 10 11 8 12 12 8 9 13 14 15 18 17 11 6 5 6 6 6 7 7 6 7 8 8 8 8 8 8 9 10 11 12 12 11 11 11 10 9 9 9 10 11 12 12 13 13 14 15 17 19 20 20 20 20 19 19 20 20 20 20 19 19
5 5 8 10 10 12 13 11 9 8 3 1 7 7 2 4 6 6 3 5 8 10 13 11 9 9 9 11 11 9 10 13 15 17 18 18 17 11 5 4 5 6 6 5 4 6 6 5 5 5 4 5 7 9 10 12 12 11 10 9 8 8 9 10 11 12 12 12 12 12 13 14 15 17 18 18 19 19 19 18 18 19 20 20 20 19
3 4 5 6 7 8 9 9 9 6 1 5 5 4 1 3 4 2 4 8 10 10 13 12 6 4 7 9 11 12 13 13 14 15 15 16 16 11 5 4 4 3 3 3 3 5 5 4 4 4 4 5 6 7 10 12 12 10 10 9 8 9 10 11 12 12 12 12 12 12 13 14 15 16 16 17 18 18 18 17 18 19 19 19 20 20
5 6 7 5 4 6 8 6 4 2 0 2 2 2 3 5 4 3 4 8 9 9 10 10 8 5 3 4 9 12 13 15 15 15 15 15 14 10 5 3 3 2 2 2 4 6 6 6 7 7 5 6 7 7 10 12 12 11 10 9 8 10 11 11 12 13 13 13 14 14 15 14 15 15 15 16 17 17 18 18 19 19 19 19 20 20
6 5 7 5 3 4 6 4 1 1 3 3 2 4 6 8 5 3 4 5 7 8 5 6 11 10 3 4 8 9 10 13 14 14 14 14 13 11 6 2 2 2 2 1 4 6 7 7 9 10 8 7 8 9 11 12 13 14 12 9 10 12 12 13 14 14 15 16 16 16 16 15 15 15 15 16 17 17 19 20 20 19 18 19 20 19
3 1 1 2 2 4 6 6 5 5 7 7 5 4 5 7 7 5 5 5 7 8 6 6 10 10 5 5 7 7 9 12 13 13 14 13 13 10 5 2 2 2 1 1 3 5 7 9 11 12 11 9 9 10 11 12 14 15 14 13 14 15 15 16 17 18 18 17 17 16 16 16 16 16 16 16 16 17 19 19 18 17 17 17 18 18
2 3 1 2 4 5 5 2 2 5 6 6 6 5 5 7 7 5 5 6 7 9 8 6 7 9 7 6 7 9 12 12 11 12 11 10 10 8 4 2 2 0 0 1 2 4 6 8 10 10 10 9 8 10 11 12 14 16 16 16 17 17 18 20 21 21 20 19 18 18 17 17 18 17 16 16 16 17 18 18 18 17 16 16 17 18
1 3 3 4 5 6 7 7 9 10 8 5 6 7 7 7 7 5 6 7 7 9 9 6 5 6 8 7 7 9 12 11 10 10 9 7 5 4 2 2 1 1 1 1 3 5 5 7 8 9 9 8 7 10 12 13 15 16 17 18 19 19 21 21 22 22 21 20 20 19 17 18 18 17 15 15 15 15 16 16 16 17 15 15 16 16
5 4 4 6 7 7 8 9 11 12 9 6 6 7 7 7 7 7 8 8 9 11 11 9 7 6 6 8 8 7 9 11 9 8 8 6 4 3 2 1 1 2 2 3 5 5 5 7 9 11 10 8 8 11 12 14 15 16 18 19 20 20 22 23 22 22 21 20 19 19 18 18 18 16 16 17 16 15 14 14 14 15 14 14 14 14
6 6 5 6 8 7 7 7 8 9 8 7 8 10 10 8 7 8 9 11 12 13 12 11 10 7 7 7 6 6 8 10 8 7 7 6 5 4 3 2 2 2 2 3 5 6 7 8 11 13 12 11 12 14 16 17 18 18 18 19 20 21 23 24 23 22 20 19 20 19 19 19 18 18 19 19 19 18 16 14 13 14 14 14 13 12
8 8 8 8 8 8 9 10 9 9 9 9 11 13 13 11 8 7 9 11 14 14 12 10 9 9 8 7 6 5 7 8 7 6 7 6 4 4 4 5 5 3 4 6 7 9 9 10 12 14 14 15 16 18 19 20 20 19 19 19 20 21 23 25 25 23 20 20 21 21 20 20 20 20 21 20 20 20 20 17 14 11 10 11 11 10
Wind_Direction
251 212 204 222 220 215 211 211 231 35 38 2 355 260 247 251 242 149 99 90 60 269 258 252 259 265 269 271 270 272 267 258 255 254 253 252 250 250 249 250 246 242 242 216 190 188 189 196 199 199 200 197 201 204 199 200 203 202 200 203 210 212 208 202 200 205 207 207 208 207 207 214 216 212 212 215 216 218 220 222 224 223 222 221 214 210
215 229 222 221 224 216 201 184 122 14 309 277 271 268 248 247 249 107 95 116 129 269 268 271 274 269 268 271 271 269 264 258 253 250 249 248 248 248 247 247 245 244 234 184 178 189 188 190 192 194 199 196 198 202 200 201 203 202 200 203 206 205 204 203 203 207 210 212 212 209 207 212 213 209 211 215 218 221 223 223 224 226 227 225 222 220
205 229 221 168 90 64 64 116 225 245 258 256 249 259 257 246 239 122 99 116 162 247 277 299 294 279 272 269 265 260 256 253 248 247 249 251 252 250 248 248 245 247 235 208 206 196 180 183 187 189 196 199 202 203 201 202 202 200 201 203 203 200 202 202 205 212 216 217 217 213 209 210 209 211 212 213 215 219 223 225 225 229 229 225 224 225
212 222 198 109 117 147 143 178 208 228 240 237 238 251 249 152 251 231 103 109 199 240 290 308 297 283 276 264 255 249 248 254 253 250 251 251 252 251 252 255 251 248 243 231 229 207 178 175 180 188 196 200 201 200 200 201 200 200 202 202 200 200 201 201 206 213 215 217 217 214 212 210 208 211 212 210 212 216 220 224 227 229 226 221 221 223
218 76 62 145 175 203 190 177 199 217 229 227 227 240 248 262 290 285 21 329 241 228 273 292 285 276 275 265 255 238 227 246 248 243 246 239 239 244 246 250 246 244 245 241 239 224 186 176 183 191 194 195 197 199 201 200 200 201 202 202 201 200 201 201 207 212 210 209 207 204 206 207 208 214 212 211 215 219 220 222 224 224 221 219 220 219
224 75 98 159 168 206 199 191 201 212 237 225 213 233 256 275 302 308 353 333 272 236 181 295 286 274 287 283 273 258 221 235 236 233 243 243 238 233 229 232 231 234 238 236 237 232 205 187 186 187 189 193 198 202 205 203 201 202 202 202 201 201 202 200 204 210 209 204 199 199 202 202 204 209 209 210 214 218 218 219 220 220 220 219 217 214
151 101 177 165 162 187 206 221 197 196 240 236 201 271 264 267 278 273 295 296 282 294 137 315 300 289 301 288 277 273 253 251 250 250 253 253 249 237 228 228 226 229 230 224 225 225 216 203 190 186 188 194 200 203 204 202 202 202 202 201 200 201 203 199 199 206 207 201 198 201 205 207 207 208 209 211 213 216 217 218 219 220 221 217 211 211
132 150 187 178 172 177 205 234 186 191 224 228 99 356 183 209 228 236 260 252 288 330 264 204 243 273 287 283 279 270 261 266 258 253 253 250 249 239 229 227 221 226 222 211 216 215 216 213 204 198 194 196 201 199 194 196 200 201 202 201 201 201 202 199 198 202 205 203 199 202 210 216 217 216 215 213 214 218 219 220 220 219 218 215 210 210
116 171 184 179 187 195 197 359 161 201 216 78 81 81 92 102 136 162 237 254 291 327 272 192 179 247 253 268 283 272 257 272 266 258 259 252 247 232 221 219 196 179 177 195 206 202 204 205 208 208 199 195 193 191 194 199 203 203 202 201 201 202 202 201 200 200 207 209 203 203 211 218 220 219 218 214 215 220 221 221 220 218 217 215 210 209
55 197 210 195 204 208 116 44 11 249 191 127 138 105 93 106 106 128 239 278 262 265 264 190 177 243 264 249 267 265 252 269 270 264 259 228 196 180 180 172 152 142 151 169 177 167 155 162 174 182 181 182 182 188 198 201 202 201 201 202 203 204 203 201 199 202 210 212 207 208 213 215 217 215 214 212 211 216 217 217 218 217 215 213 209 208
93 69 317 234 223 121 96 68 25 22 90 142 150 119 115 139 121 199 228 288 267 256 263 180 182 233 277 236 231 246 256 279 270 245 144 126 139 159 155 143 149 149 140 139 144 149 142 142 152 165 177 178 178 186 193 194 196 197 198 202 204 204 204 201 199 202 211 213 211 211 213 214 215 213 212 212 209 211 213 213 214 214 214 214 213 213
149 163 166 146 82 120 113 88 52 49 113 153 166 163 184 196 176 222 203 175 246 249 207 55 209 248 258 225 209 252 324 279 236 213 164 130 128 140 142 140 146 149 144 144 143 146 152 161 168 179 187 184 181 184 189 191 193 196 198 200 202 204 205 205 202 201 207 212 212 211 213 216 217 216 215 212 210 211 211 212 213 214 216 216 217 217
189 199 152 115 114 197 165 122 88 96 182 200 193 184 215 228 202 224 212 194 236 235 135 41 350 261 253 241 234 260 274 251 237 226 237 253 216 174 151 147 155 170 176 175 173 164 172 181 179 184 187 184 186 188 190 191 191 194 197 198 202 205 204 205 204 201 204 209 211 211 214 218 219 222 222 217 215 216 214 214 215 215 216 215 215 216
189 194 151 149 177 210 204 176 149 170 186 195 193 186 207 220 223 233 220 215 243 223 121 190 147 255 267 261 232 235 239 246 254 260 271 276 270 264 190 157 169 187 200 210 209 208 217 215 200 195 190 184 188 191 189 191 191 192 195 198 202 205 204 205 205 202 204 208 210 211 214 217 219 222 225 221 218 219 217 218 219 219 217 214 213 215
211 237 177 176 167 176 200 215 197 172 178 199 203 201 216 224 238 245 236 246 258 183 149 189 198 238 261 4 208 221 233 255 275 290 283 273 267 274 258 197 197 204 212 222 224 225 229 222 207 198 192 189 189 188 188 189 190 193 196 198 200 202 202 204 204 204 205 208 211 213 215 217 218 221 224 223 220 221 222 223 224 223 218 216 217 222
221 241 163 153 152 168 187 218 209 176 177 196 200 216 231 237 244 257 308 305 310 335 210 196 237 247 252 303 271 241 238 239 248 256 258 265 258 249 253 239 227 224 222 223 228 230 219 203 196 191 188 190 188 186 189 190 192 194 195 197 200 201 202 204 206 208 208 209 212 216 218 219 219 221 225 225 224 224 225 226 225 221 219 222 228 233
217 240 129 119 157 169 182 221 201 193 188 174 183 210 219 12 264 248 228 94 72 279 253 214 252 267 277 282 254 231 235 235 230 228 232 257 265 254 255 244 217 205 213 223 228 225 208 190 186 187 183 185 187 187 191 193 194 196 195 196 199 201 203 205 207 209 209 209 213 216 219 221 221 223 226 226 223 224 225 225 224 222 223 228 232 234
218 247 138 165 179 159 9 340 184 359 13 158 193 202 112 46 311 252 245 224 214 249 256 232 250 267 277 275 220 192 223 236 236 227 212 229 241 246 257 258 233 188 203 223 228 215 199 187 181 182 181 185 189 189 193 197 196 197 197 197 198 200 203 204 205 208 208 209 213 216 218 222 224 226 228 225 220 218 220 222 224 226 228 229 229 231
204 231 214 165 185 125 84 233 200 116 62 57 293 239 116 228 222 208 224 238 235 241 256 249 250 258 254 256 264 182 209 231 254 254 241 236 229 228 247 261 273 250 215 202 212 209 197 190 183 178 178 183 190 192 195 197 195 197 200 199 201 202 203 203 203 206 208 208 213 216 217 221 224 226 227 225 221 219 221 225 227 229 230 230 231 231
179 222 222 21 1 127 136 201 207 179 135 32 307 252 210 257 231 213 210 221 237 241 251 258 256 251 243 253 268 265 257 265 277 280 278 273 257 228 227 247 254 250 230 197 195 199 190 180 172 169 174 181 191 196 195 194 194 198 200 201 204 205 204 204 203 203 207 207 211 215 217 219 223 223 225 226 225 224 225 227 228 229 229 231 233 231
168 215 222 129 57 172 180 204 204 188 170 181 222 212 199 208 247 278 241 221 235 242 243 255 259 257 254 261 269 270 274 282 295 310 297 299 302 272 159 215 238 246 252 242 214 194 173 157 155 163 177 186 194 199 197 196 197 200 203 203 204 205 204 205 203 202 205 207 211 216 217 218 222 223 225 226 225 225 227 228 229 229 230 232 232 230
187 205 211 167 176 209 208 203 205 203 189 189 202 203 204 201 188 231 238 217 220 244 251 260 268 269 265 268 299 291 314 348 14 8 310 302 305 293 181 194 218 226 246 257 249 209 153 148 157 164 178 187 191 196 197 200 202 203 206 205 203 205 207 206 204 201 202 206 212 217 218 221 223 225 227 227 226 226 228 228 229 230 231 231 231 232
200 211 219 206 196 202 186 118 96 284 253 234 224 215 214 206 195 214 226 202 193 219 257 274 271 274 268 250 7 308 334 29 28 10 289 286 294 296 274 218 216 210 224 255 270 220 116 154 162 160 174 189 196 199 197 200 206 208 208 205 204 206 208 208 205 201 202 206 213 216 218 220 222 224 227 227 227 229 230 229 230 231 231 232 233 235
86 193 226 228 215 172 115 108 98 43 302 259 244 230 224 223 220 225 235 269 213 207 218 243 247 266 272 269 285 275 198 124 228 221 241 263 280 282 268 260 238 207 205 223 241 207 167 207 182 173 182 193 200 201 199 203 210 212 211 209 208 208 210 211 208 205 205 209 214 216 216 217 218 222 225 225 226 228 229 230 231 231 231 232 234 236
168 192 212 220 228 208 180 193 203 190 206 232 239 234 230 232 230 202 68 259 248 229 225 237 240 257 272 273 253 221 195 205 232 227 218 237 255 263 258 246 226 211 208 218 220 216 214 222 231 220 203 199 203 203 203 208 212 214 216 215 214 212 212 213 211 208 209 211 214 217 217 217 219 222 225 225 226 226 225 226 229 231 231 231 233 235
192 212 195 201 223 222 213 220 204 187 191 213 235 230 227 224 212 195 214 217 231 238 234 239 246 257 270 273 267 229 210 218 234 236 221 218 237 258 271 273 273 288 263 247 240 241 238 231 232 232 220 212 210 206 207 211 216 222 226 224 221 217 213 213 212 210 210 213 215 217 218 218 220 225 226 226 226 226 224 225 226 228 230 231 232 233
134 258 213 212 227 231 238 253 120 130 161 193 215 221 223 223 214 209 227 227 229 243 242 240 244 253 263 270 275 273 253 234 232 233 233 231 226 232 254 265 269 268 263 263 265 261 255 246 239 235 227 220 214 214 215 215 221 230 232 228 224 220 216 213 212 211 212 214 215 217 218 219 221 225 226 225 225 225 224 224 224 227 231 232 231 231
105 243 233 229 241 246 254 265 264 179 194 207 211 215 217 220 217 211 223 230 230 241 247 241 237 244 255 265 272 273 267 262 253 241 241 242 229 205 226 251 255 257 259 245 236 242 242 246 252 244 230 219 215 220 220 219 226 235 236 230 224 221 218 213 210 213 214 213 214 217 220 221 223 225 225 223 224 224 223 223 225 228 231 232 231 231
145 235 240 241 255 261 266 271 272 273 267 249 236 233 223 214 212 212 222 230 229 233 246 247 245 248 252 258 263 266 268 272 275 271 258 245 230 193 224 254 253 248 250 242 234 232 227 234 240 237 231 223 219 224 223 218 224 235 235 230 224 223 221 215 210 213 215 214 216 219 220 221 222 223 223 221 221 222 220 220 224 227 229 230 231 232
171 230 242 244 260 266 266 268 268 267 270 269 264 257 249 231 217 212 218 227 230 235 244 250 255 257 254 254 261 268 274 278 283 288 260 229 227 228 241 253 250 233 234 245 249 249 244 240 235 231 230 226 223 228 227 219 221 231 234 229 224 224 223 217 212 213 216 217 219 219 218 219 219 220 220 219 220 219 218 218 221 224 226 228 229 230
178 208 232 225 245 261 261 264 265 261 258 263 266 264 261 254 239 225 222 225 232 240 244 247 254 260 258 257 263 272 278 279 278 273 258 234 226 231 242 253 257 251 245 249 254 256 255 251 244 239 235 232 230 229 227 225 224 230 234 231 225 224 224 218 213 213 217 219 219 218 217 217 218 218 219 220 219 218 216 216 220 223 224 225 226 228
176 193 199 192 224 249 251 252 258 261 258 256 260 258 251 247 244 236 229 225 226 235 241 244 248 255 260 263 266 269 272 274 275 274 272 261 245 239 241 250 259 260 258 256 256 256 258 258 255 249 245 240 234 227 226 228 226 229 232 230 225 223 222 218 214 214 217 219 218 217 216 215 216 217 218 218 218 217 214 215 218 221 221 221 223 225
181 191 182 191 221 247 247 247 256 263 259 240 237 242 240 238 240 240 238 232 226 225 233 239 240 247 259 267 267 263 264 269 274 275 273 271 269 261 247 249 258 259 258 260 259 257 258 258 257 256 252 244 233 228 230 229 225 229 233 231 225 220 218 216 215 215 217 218 216 215 214 214 214 216 216 215 215 216 214 214 216 217 218 219 222 222
186 200 208 206 217 245 247 247 249 250 248 235 228 232 233 235 236 235 237 235 229 223 227 239 248 254 257 260 260 259 263 269 270 271 271 269 273 273 262 260 263 259 257 258 257 257 258 257 257 258 251 239 229 228 230 227 226 232 235 228 221 217 215 214 213 213 216 215 213 212 212 212 212 213 213 213 213 213 213 213 214 216 218 219 218 218
189 203 222 222 226 247 253 246 242 240 229 228 237 236 231 232 233 233 237 239 237 234 232 236 245 251 251 253 256 260 267 272 270 273 273 268 270 277 273 267 262 258 258 259 257 258 261 261 261 256 239 226 225 223 223 225 227 229 227 220 216 212 211 212 210 212 214 213 211 210 208 209 210 209 210 210 210 210 210 211 212 213 215 215 215 216
212 209 222 229 231 239 241 234 241 256 256 244 255 250 230 229 231 234 241 244 243 242 240 237 239 243 247 251 255 261 270 275 276 273 269 267 266 264 262 261 261 260 260 261 261 261 262 262 261 258 248 234 228 224 224 226 223 219 216 213 211 208 209 209 208 209 211 210 209 208 207 208 207 205 205 204 203 204 206 207 208 209 211 210 211 215
227 222 220 229 225 223 240 243 250 282 287 266 258 246 226 219 219 223 238 246 242 237 236 239 242 244 246 249 255 261 266 273 277 272 267 266 259 252 253 257 260 262 263 264 265 265 266 267 266 263 258 241 226 222 221 218 213 210 207 204 203 204 204 206 207 208 208 207 206 206 207 209 206 202 201 199 198 199 201 203 205 206 207 206 206 209
221 222 221 229 220 212 237 247 249 259 256 244 245 245 238 233 224 219 234 247 245 240 236 236 243 248 249 250 254 259 258 261 267 268 269 267 257 251 252 255 258 261 262 263 266 267 266 265 260 252 240 223 216 215 212 209 207 202 197 194 195 195 197 202 204 202 203 203 203 204 205 207 205 201 197 196 196 197 198 200 201 203 205 206 204 205
215 218 219 228 231 218 228 238 239 244 244 241 252 255 252 248 237 231 248 249 239 245 245 237 243 252 257 261 259 244 235 248 253 261 270 273 268 257 254 254 257 260 262 262 265 266 260 250 242 238 227 212 209 211 211 209 203 193 187 186 188 188 192 197 197 196 198 199 199 200 201 203 203 199 196 195 196 196 195 195 197 201 202 203 203 203
213 216 216 224 232 230 234 241 239 246 261 264 266 272 276 241 215 227 249 250 231 251 256 250 254 260 262 266 263 237 220 242 253 261 270 276 279 259 255 262 267 272 276 273 266 259 250 240 234 232 223 215 212 212 211 202 190 182 179 179 181 186 190 192 191 192 193 191 190 193 196 199 198 195 194 194 192 191 191 192 195 197 196 196 199 201
219 219 217 221 229 231 237 245 247 252 257 255 267 285 347 127 202 229 245 303 344 303 306 313 296 291 271 251 253 241 228 241 253 262 271 279 283 268 257 278 293 298 303 298 271 248 237 230 229 226 221 217 210 203 198 188 176 169 170 170 172 178 180 179 179 179 179 180 182 187 192 193 192 190 190 190 187 184 186 191 194 193 190 190 192 193
237 228 219 220 227 230 232 240 250 256 251 260 294 308 86 172 236 248 274 328 331 322 324 325 328 336 314 278 275 276 262 256 257 260 266 273 274 269 250 249 269 274 282 290 270 242 225 215 212 203 194 196 193 188 186 177 164 157 159 156 152 159 165 166 168 168 169 172 176 180 182 181 182 183 182 182 182 180 180 186 189 187 185 185 184 183
233 249 241 218 221 233 234 234 243 250 41 47 347 323 149 213 278 338 346 320 319 321 316 311 314 342 328 309 305 305 302 296 285 277 274 273 276 283 282 265 270 266 244 248 240 216 196 168 147 143 151 166 170 173 176 167 153 147 146 137 137 155 162 163 165 165 165 166 166 165 167 169 173 176 175 176 179 178 175 178 179 179 180 180 178 176
220 234 254 239 209 225 236 234 224 213 109 33 348 262 254 286 316 353 325 312 313 311 309 307 301 299 302 297 297 301 305 305 299 297 297 294 296 306 317 315 308 289 231 213 206 195 179 151 136 133 136 148 152 157 164 160 148 138 134 133 147 160 158 158 162 159 154 152 151 152 157 161 165 169 171 173 175 173 171 170 170 171 174 175 173 170
220 227 258 264 233 233 255 263 279 314 288 277 236 231 263 282 291 291 289 291 292 295 297 294 295 298 282 249 273 280 282 287 292 295 295 296 299 303 305 302 285 275 260 220 195 189 180 162 150 143 135 139 148 149 156 163 155 142 138 148 162 163 157 154 153 148 143 143 145 148 151 153 157 163 167 170 170 170 168 165 163 164 166 167 167 164
259 323 281 271 289 283 267 252 248 272 284 281 260 231 245 267 276 278 273 260 268 284 286 274 284 293 282 256 266 270 271 277 282 284 285 288 290 292 290 269 263 270 279 256 206 192 181 161 151 145 134 132 145 150 155 165 163 153 151 158 161 158 155 151 146 142 141 141 144 148 149 148 150 154 157 159 163 165 163 160 157 157 158 160 163 163
275 37 12 283 291 279 263 248 272 282 287 297 297 281 261 263 265 253 239 240 257 277 281 271 276 287 283 265 256 263 272 276 277 278 282 284 286 289 286 259 252 237 281 254 203 192 179 158 149 145 133 126 141 152 152 156 160 159 157 156 155 154 152 149 145 142 141 142 144 147 146 144 143 144 145 148 152 156 157 159 160 158 157 160 164 165
274 11 332 292 279 270 283 316 320 300 285 282 285 287 285 283 281 263 245 250 266 281 283 273 260 272 280 272 259 262 274 279 279 278 279 280 285 289 286 265 234 162 126 167 175 182 177 162 153 142 126 119 135 150 152 154 157 159 156 152 152 152 149 147 144 143 141 141 142 142 142 143 141 138 137 140 142 145 151 157 161 159 158 164 166 164
289 305 291 278 278 274 280 296 300 292 284 274 271 277 281 280 281 280 276 278 284 288 286 275 256 242 253 269 277 280 279 279 279 275 272 272 269 259 251 244 189 157 139 150 165 169 165 161 154 142 130 128 136 144 149 150 152 155 153 151 153 153 149 146 144 142 139 138 139 140 141 142 141 138 137 137 134 134 138 146 155 156 156 160 164 168
264 261 256 266 274 273 273 281 288 290 290 288 288 290 289 284 277 276 281 287 290 289 285 278 268 251 232 240 259 269 271 275 278 270 265 262 251 234 214 187 168 150 135 143 155 160 160 159 156 148 142 141 144 146 147 147 149 152 153 153 157 157 153 148 144 141 140 141 143 144 143 143 143 144 142 140 136 133 129 132 147 159 162 163 168 176
244 245 250 255 259 267 276 280 282 282 283 284 285 286 288 291 286 275 275 282 287 287 285 278 272 270 260 241 223 224 251 273 278 267 261 258 239 206 185 180 175 166 165 166 160 156 157 160 161 157 151 149 150 151 150 149 150 153 156 159 163 162 158 153 149 145 146 149 150 150 150 149 148 147 145 143 142 137 128 120 119 129 147 161 168 173